Location: Newark
(45.8667°N, 9.7333°E)
Time: 14:49:18
(UTC+00:00)

ITAMSAT 1 - Pass Details

Date: 28 February 2020
Orbit: 784 x 796 km, 98.9° (Epoch: 08 April)

Event Time Altitude Azimuth Distance (km) Brightness Sun altitude
Rises 05:02:24 0° 16° (NNE) 3,310 11.1 -11.3°
Reaches altitude 10° 05:04:45 10° 19° (NNE) 2,377 10.4 -10.9°
Maximum altitude 05:10:00 70° 103° (ESE) 849 8.1 -10.0°
Drops below altitude 10° 05:15:12 10° 187° (S) 2,360 10.1 -9.1°
Sets 05:17:32 0° 190° (S) 3,285 10.8 -8.7°
